Weather History for KPVW - March, 2013

Change the Weather History Date:

Monday, March 4, 2013

  Actual Average Record
Temperature  
Mean Temperature 56 °F -  
Max Temperature 73 °F 59 °F 87 °F (2009)
Min Temperature 39 °F 30 °F 1 °F (1917)
Degree Days  
Heating Degree Days 9    
Growing Degree Days 6 (Base 50)    
Moisture  
Dew Point 28 °F    
Average Humidity 32    
Maximum Humidity 70    
Minimum Humidity 15    
Precipitation  
Precipitation 0.00 in - - ()
Sea Level Pressure  
Sea Level Pressure 29.76 in    
Wind  
Wind Speed 17 mph (WNW)    
Max Wind Speed 31 mph    
Max Gust Speed 40 mph    
Visibility 10 miles    
Events      
Averages and records for this station are not official NWS values.
T = Trace of Precipitation, MM = Missing Value Source: NWS Daily Summary

Daily Weather History Graph

Daily Weather History Graph

Search for Another Location

Airport or City:

Trip Planner

Search our weather history database for the weather conditions in past years. The results will help you decide how hot, cold, wet, or windy it might be!

Date:

Astronomy

Mar. 04, 2013 Rise Set
Actual Time 7:11 AM CST 6:45 PM CST
Civil Twilight 6:46 AM CST 7:11 PM CST
Nautical Twilight 6:17 AM CST 7:40 PM CST
Astronomical Twilight 5:48 AM CST 8:09 PM CST
Moon 1:12 AM CST (3/4) 11:40 AM CST (3/4)
Length of Visible Light 12h 24m
Length of Day
11h 34m
Waning Gibbous, 52% of the Moon is Illuminated
Mar 4
Waning Gibbous
Mar 4
Last Quarter
Mar 11
New
Mar 19
First Quarter
Mar 27
Full

Hourly Weather History & Observations

Time (CST) Temp. Windchill Dew Point Humidity Pressure Visibility Wind Dir Wind Speed Gust Speed Precip Events Conditions
12:15 AM 55.4 °F - 19.4 °F 25% 29.71 in 10.0 mi West 16.1 mph - N/A   Clear
12:35 AM 60.8 °F - 26.6 °F 27% 29.70 in 10.0 mi West 24.2 mph 28.8 mph N/A   Clear
12:55 AM 59.0 °F - 26.6 °F 29% 29.70 in 10.0 mi West 16.1 mph 24.2 mph N/A   Clear
1:15 AM 57.2 °F - 26.6 °F 31% 29.70 in 10.0 mi WNW 13.8 mph - N/A   Clear
1:55 AM 55.4 °F - 28.4 °F 36% 29.72 in 10.0 mi West 15.0 mph - N/A   Clear
2:15 AM 53.6 °F - 28.4 °F 38% 29.72 in 10.0 mi West 12.7 mph - N/A   Clear
2:35 AM 53.6 °F - 30.2 °F 41% 29.72 in 10.0 mi West 12.7 mph - N/A   Clear
2:55 AM 53.6 °F - 30.2 °F 41% 29.72 in 10.0 mi West 8.1 mph - N/A   Clear
3:15 AM 51.8 °F - 32.0 °F 47% 29.72 in 10.0 mi NNW 5.8 mph - N/A   Clear
3:35 AM 53.6 °F - 30.2 °F 41% 29.71 in 10.0 mi West 11.5 mph - N/A   Clear
3:55 AM 51.8 °F - 32.0 °F 47% 29.70 in 10.0 mi WNW 8.1 mph - N/A   Clear
4:15 AM 51.8 °F - 32.0 °F 47% 29.71 in 10.0 mi WNW 9.2 mph - N/A   Clear
4:35 AM 53.6 °F - 32.0 °F 44% 29.70 in 10.0 mi WNW 15.0 mph - N/A   Clear
4:55 AM 53.6 °F - 28.4 °F 38% 29.70 in 10.0 mi WNW 16.1 mph - N/A   Clear
5:15 AM 53.6 °F - 28.4 °F 38% 29.70 in 10.0 mi WNW 15.0 mph - N/A   Clear
5:35 AM 53.6 °F - 30.2 °F 41% 29.71 in 10.0 mi WNW 15.0 mph - N/A   Clear
5:55 AM 55.4 °F - 28.4 °F 36% 29.72 in 10.0 mi West 21.9 mph - N/A   Clear
6:15 AM 55.4 °F - 26.6 °F 33% 29.72 in 10.0 mi WNW 20.7 mph 29.9 mph N/A   Clear
6:35 AM 55.4 °F - 26.6 °F 33% 29.73 in 10.0 mi WNW 17.3 mph - N/A   Clear
6:55 AM 53.6 °F - 28.4 °F 38% 29.75 in 10.0 mi WNW 15.0 mph - N/A   Clear
7:15 AM 53.6 °F - 28.4 °F 38% 29.75 in 10.0 mi WNW 11.5 mph - N/A   Clear
7:35 AM 50.0 °F - 28.4 °F 43% 29.76 in 10.0 mi WNW 6.9 mph - N/A   Clear
7:55 AM 50.0 °F - 30.2 °F 47% 29.77 in 10.0 mi WNW 10.4 mph - N/A   Clear
8:15 AM 50.0 °F - 28.4 °F 43% 29.77 in 10.0 mi WNW 9.2 mph - N/A   Clear
8:35 AM 53.6 °F - 28.4 °F 38% 29.78 in 10.0 mi WNW 11.5 mph - N/A   Clear
8:55 AM 59.0 °F - 28.4 °F 31% 29.77 in 10.0 mi WNW 15.0 mph - N/A   Clear
9:15 AM 62.6 °F - 26.6 °F 26% 29.77 in 10.0 mi WNW 17.3 mph - N/A   Clear
9:35 AM 64.4 °F - 28.4 °F 26% 29.77 in 10.0 mi WNW 19.6 mph 23.0 mph N/A   Clear
9:55 AM 68.0 °F - 28.4 °F 23% 29.77 in 10.0 mi West 19.6 mph - N/A   Clear
10:15 AM 68.0 °F - 28.4 °F 23% 29.78 in 10.0 mi West 24.2 mph 27.6 mph N/A   Clear
10:35 AM 69.8 °F - 28.4 °F 21% 29.77 in 10.0 mi West 17.3 mph 23.0 mph N/A   Clear
10:55 AM 69.8 °F - 26.6 °F 20% 29.77 in 10.0 mi West 23.0 mph 28.8 mph N/A   Clear
11:15 AM 69.8 °F - 24.8 °F 18% 29.76 in 10.0 mi West 20.7 mph 33.4 mph N/A   Clear
11:35 AM 69.8 °F - 24.8 °F 18% 29.76 in 10.0 mi West 24.2 mph 31.1 mph N/A   Clear
11:55 AM 69.8 °F - 24.8 °F 18% 29.76 in 10.0 mi West 23.0 mph 29.9 mph N/A   Clear
12:15 PM 69.8 °F - 24.8 °F 18% 29.75 in 10.0 mi WNW 18.4 mph 29.9 mph N/A   Clear
12:55 PM 73.4 °F - 26.6 °F 18% 29.73 in 10.0 mi West 18.4 mph 29.9 mph N/A   Clear
1:15 PM 73.4 °F - 26.6 °F 18% 29.71 in 10.0 mi WNW 19.6 mph 27.6 mph N/A   Clear
1:35 PM 71.6 °F - 26.6 °F 19% 29.70 in 10.0 mi WNW 13.8 mph 19.6 mph N/A   Scattered Clouds
1:55 PM 73.4 °F - 26.6 °F 18% 29.69 in 10.0 mi WNW 19.6 mph 28.8 mph N/A   Scattered Clouds
2:15 PM 73.4 °F - 26.6 °F 18% 29.68 in 10.0 mi West 21.9 mph 32.2 mph N/A   Mostly Cloudy
2:35 PM 73.4 °F - 24.8 °F 16% 29.68 in 10.0 mi West 25.3 mph 34.5 mph N/A   Mostly Cloudy
2:55 PM 73.4 °F - 23.0 °F 15% 29.67 in 10.0 mi West 27.6 mph 36.8 mph N/A   Overcast
3:35 PM 73.4 °F - 24.8 °F 16% 29.67 in 10.0 mi WNW 28.8 mph 35.7 mph N/A   Mostly Cloudy
3:55 PM 73.4 °F - 24.8 °F 16% 29.68 in 10.0 mi WNW 27.6 mph 36.8 mph N/A   Overcast
4:15 PM 73.4 °F - 24.8 °F 16% 29.67 in 10.0 mi WNW 25.3 mph 31.1 mph N/A   Overcast
4:35 PM 73.4 °F - 24.8 °F 16% 29.68 in 10.0 mi WNW 27.6 mph 32.2 mph N/A   Overcast
4:55 PM 73.4 °F - 24.8 °F 16% 29.68 in 10.0 mi WNW 24.2 mph 33.4 mph N/A   Mostly Cloudy
5:15 PM 71.6 °F - 23.0 °F 16% 29.69 in 10.0 mi WNW 25.3 mph 33.4 mph N/A   Mostly Cloudy
5:35 PM 71.6 °F - 23.0 °F 16% 29.69 in 10.0 mi NW 20.7 mph 26.5 mph N/A   Mostly Cloudy
5:55 PM 69.8 °F - 21.2 °F 16% 29.70 in 10.0 mi NW 17.3 mph 29.9 mph N/A   Scattered Clouds
6:15 PM 69.8 °F - 24.8 °F 18% 29.70 in 10.0 mi NW 15.0 mph 20.7 mph N/A   Clear
6:35 PM 68.0 °F - 24.8 °F 20% 29.71 in 10.0 mi NW 12.7 mph - N/A   Clear
6:55 PM 64.4 °F - 23.0 °F 21% 29.72 in 10.0 mi NW 11.5 mph - N/A   Clear
7:15 PM 62.6 °F - 24.8 °F 24% 29.72 in 10.0 mi NW 10.4 mph - N/A   Scattered Clouds
7:35 PM 60.8 °F - 26.6 °F 27% 29.74 in 10.0 mi NW 9.2 mph - N/A   Mostly Cloudy
7:55 PM 60.8 °F - 26.6 °F 27% 29.75 in 10.0 mi WNW 6.9 mph - N/A   Scattered Clouds
8:35 PM 55.4 °F - 35.6 °F 47% 29.84 in 10.0 mi NE 24.2 mph 38.0 mph N/A   Mostly Cloudy
8:55 PM 53.6 °F - 35.6 °F 51% 29.85 in 10.0 mi NE 31.1 mph 35.7 mph N/A   Mostly Cloudy
9:15 PM 53.6 °F - 35.6 °F 51% 29.86 in 10.0 mi NE 28.8 mph 38.0 mph N/A   Mostly Cloudy
9:35 PM 50.0 °F - 33.8 °F 54% 29.89 in 10.0 mi NE 25.3 mph 35.7 mph N/A   Mostly Cloudy
9:55 PM 50.0 °F - 33.8 °F 54% 29.93 in 10.0 mi NE 23.0 mph 34.5 mph N/A   Mostly Cloudy
10:15 PM 50.0 °F - 33.8 °F 54% 29.99 in 10.0 mi NNE 24.2 mph 31.1 mph N/A   Mostly Cloudy
10:55 PM 42.8 °F 32.3 °F 28.4 °F 57% 30.08 in 10.0 mi NNE 29.9 mph 39.1 mph N/A   Overcast
11:15 PM 39.2 °F 28.3 °F 30.2 °F 70% 30.11 in 10.0 mi NNE 25.3 mph 40.3 mph N/A   Overcast
11:35 PM 39.2 °F 27.8 °F 30.2 °F 70% 30.13 in 10.0 mi NNE 27.6 mph 38.0 mph N/A   Overcast
11:55 PM 39.2 °F 28.3 °F 30.2 °F 70% 30.14 in 10.0 mi NNE 25.3 mph 34.5 mph N/A   Overcast